When you browse on this site, cookies collect data to enhance your experience and personalize the content and advertising you see.
Visit our Privacy Policy to learn more. By continuing to use the site, you agree to this use of cookies and data.
  • In Österreich
  • Länderverzeichnis
  • Für 7 Tage
  • Wassertemperatur
  • Wetterkarte
  • News
  • Widgets
  • user-avatar
    Anmelden

    Stündliche Wetter Cardonal

    Heute, 25 August, Sonntag

    Zeit Temperatur Niederschläge Wind Luftdruck Luftfeuchtigkeit
    00:00 +19°C° 0.4 mm 1 m/S 600 mmHg 87%
    01:00 +18°C° 0.4 mm 1 m/S 599 mmHg 86%
    02:00 +18°C° 0.4 mm 1 m/S 599 mmHg 85%
    03:00 +18°C° 0 mm 1 m/S 599 mmHg 86%
    04:00 +15°C° 0 mm 0 m/S 599 mmHg 88%
    05:00 +15°C° 0 mm 0 m/S 598 mmHg 89%
    06:00 +16°C° 0 mm 0 m/S 599 mmHg 82%
    07:00 +18°C° 0 mm 0 m/S 600 mmHg 75%
    08:00 +20°C° 0 mm 0 m/S 601 mmHg 69%
    09:00 +21°C° 0 mm 0 m/S 601 mmHg 62%
    10:00 +25°C° 0 mm 1 m/S 602 mmHg 56%
    11:00 +27°C° 0 mm 1 m/S 602 mmHg 49%
    12:00 +26°C° 1 mm 1 m/S 601 mmHg 51%
    13:00 +26°C° 1 mm 2 m/S 601 mmHg 53%
    14:00 +26°C° 1 mm 2 m/S 600 mmHg 55%
    15:00 +25°C° 1.4 mm 2 m/S 599 mmHg 61%
    16:00 +24°C° 1.4 mm 2 m/S 599 mmHg 66%
    17:00 +23°C° 1.4 mm 2 m/S 599 mmHg 72%
    18:00 +21°C° 0.9 mm 2 m/S 599 mmHg 76%
    19:00 +21°C° 0.9 mm 1 m/S 599 mmHg 81%
    20:00 +20°C° 0.9 mm 1 m/S 599 mmHg 85%
    21:00 +20°C° 0.3 mm 1 m/S 599 mmHg 86%
    22:00 +17°C° 0.3 mm 0 m/S 599 mmHg 86%
    23:00 +17°C° 0.3 mm 0 m/S 599 mmHg 87%

    Morgen, 26 August, Montag

    Zeit Temperatur Niederschläge Wind Luftdruck Luftfeuchtigkeit
    00:00 +16°C° 0.5 mm 0 m/S 598 mmHg 88%
    01:00 +16°C° 0.5 mm 0 m/S 598 mmHg 88%
    02:00 +16°C° 0.5 mm 0 m/S 597 mmHg 89%
    03:00 +16°C° 0 mm 0 m/S 597 mmHg 88%
    04:00 +16°C° 0 mm 1 m/S 597 mmHg 88%
    05:00 +16°C° 0 mm 1 m/S 597 mmHg 87%
    06:00 +19°C° 0 mm 1 m/S 598 mmHg 81%
    07:00 +20°C° 0 mm 1 m/S 599 mmHg 75%
    08:00 +21°C° 0 mm 1 m/S 600 mmHg 70%
    09:00 +22°C° 1.2 mm 1 m/S 600 mmHg 66%
    10:00 +24°C° 1.2 mm 1 m/S 600 mmHg 63%
    11:00 +25°C° 1.2 mm 1 m/S 600 mmHg 60%
    12:00 +25°C° 1.1 mm 1 m/S 600 mmHg 57%
    13:00 +25°C° 1.1 mm 2 m/S 599 mmHg 55%
    14:00 +26°C° 1.1 mm 2 m/S 599 mmHg 52%
    15:00 +25°C° 0.6 mm 2 m/S 599 mmHg 58%
    16:00 +24°C° 0.6 mm 2 m/S 598 mmHg 64%
    17:00 +23°C° 0.6 mm 2 m/S 597 mmHg 70%
    18:00 +20°C° 0.5 mm 2 m/S 598 mmHg 76%
    19:00 +20°C° 0.5 mm 1 m/S 598 mmHg 82%
    20:00 +19°C° 0.5 mm 1 m/S 598 mmHg 87%
    21:00 +19°C° 0.3 mm 1 m/S 598 mmHg 87%
    22:00 +17°C° 0.3 mm 0 m/S 598 mmHg 87%
    23:00 +16°C° 0.3 mm 0 m/S 598 mmHg 87%

    übermorgen, 27 August, Dienstag

    Zeit Temperatur Niederschläge Wind Luftdruck Luftfeuchtigkeit
    00:00 +18°C° 0.3 mm 1 m/S 598 mmHg 87%
    01:00 +16°C° 0.3 mm 1 m/S 598 mmHg 88%
    02:00 +16°C° 0.3 mm 1 m/S 597 mmHg 88%
    03:00 +16°C° 0 mm 1 m/S 597 mmHg 89%
    04:00 +15°C° 0 mm 1 m/S 597 mmHg 89%
    05:00 +15°C° 0 mm 1 m/S 597 mmHg 89%
    06:00 +16°C° 0 mm 1 m/S 598 mmHg 84%
    07:00 +17°C° 0 mm 0 m/S 599 mmHg 79%
    08:00 +18°C° 0 mm 0 m/S 600 mmHg 74%
    09:00 +22°C° 0 mm 1 m/S 600 mmHg 66%
    10:00 +23°C° 0 mm 1 m/S 600 mmHg 59%
    11:00 +25°C° 0 mm 2 m/S 601 mmHg 52%
    12:00 +25°C° 0 mm 2 m/S 600 mmHg 51%
    13:00 +25°C° 0 mm 3 m/S 600 mmHg 51%
    14:00 +26°C° 0 mm 4 m/S 600 mmHg 50%
    15:00 +23°C° 0.3 mm 4 m/S 599 mmHg 59%
    16:00 +22°C° 0.3 mm 4 m/S 599 mmHg 67%
    17:00 +21°C° 0.3 mm 3 m/S 598 mmHg 76%
    18:00 +19°C° 0.7 mm 3 m/S 598 mmHg 82%
    19:00 +18°C° 0.7 mm 2 m/S 599 mmHg 88%
    20:00 +18°C° 0.7 mm 1 m/S 599 mmHg 94%
    21:00 +18°C° 0.3 mm 1 m/S 599 mmHg 94%
    22:00 +18°C° 0.3 mm 1 m/S 599 mmHg 94%
    23:00 +18°C° 0.3 mm 1 m/S 600 mmHg 94%

    28 August, Mittwoch

    Zeit Temperatur Niederschläge Wind Luftdruck Luftfeuchtigkeit
    00:00 +16°C° 1.1 mm 1 m/S 599 mmHg 93%
    01:00 +16°C° 1.1 mm 1 m/S 599 mmHg 92%
    02:00 +16°C° 1.1 mm 1 m/S 599 mmHg 91%
    03:00 +16°C° 0.8 mm 1 m/S 599 mmHg 91%
    04:00 +14°C° 0.8 mm 0 m/S 599 mmHg 91%
    05:00 +14°C° 0.8 mm 0 m/S 599 mmHg 91%
    06:00 +18°C° 0.1 mm 1 m/S 600 mmHg 86%
    07:00 +19°C° 0.1 mm 1 m/S 601 mmHg 81%
    08:00 +20°C° 0.1 mm 1 m/S 602 mmHg 76%
    09:00 +21°C° 0.1 mm 1 m/S 602 mmHg 71%
    10:00 +23°C° 0.1 mm 2 m/S 602 mmHg 66%
    11:00 +24°C° 0.1 mm 2 m/S 602 mmHg 61%
    12:00 +24°C° 0.1 mm 3 m/S 602 mmHg 61%
    13:00 +23°C° 0.1 mm 4 m/S 601 mmHg 61%
    14:00 +23°C° 0.1 mm 5 m/S 601 mmHg 62%
    15:00 +22°C° 0.1 mm 4 m/S 600 mmHg 66%
    16:00 +21°C° 0.1 mm 4 m/S 600 mmHg 71%
    17:00 +20°C° 0.1 mm 4 m/S 600 mmHg 76%
    18:00 +19°C° 0 mm 3 m/S 600 mmHg 83%
    19:00 +17°C° 0 mm 2 m/S 600 mmHg 90%
    20:00 +16°C° 0 mm 1 m/S 600 mmHg 97%
    21:00 +16°C° 0 mm 1 m/S 600 mmHg 96%
    22:00 +16°C° 0 mm 1 m/S 600 mmHg 96%
    23:00 +15°C° 0 mm 1 m/S 600 mmHg 95%

    29 August, Donnerstag

    Zeit Temperatur Niederschläge Wind Luftdruck Luftfeuchtigkeit
    00:00 +15°C° 0 mm 1 m/S 600 mmHg 94%
    01:00 +14°C° 0 mm 0 m/S 600 mmHg 93%
    02:00 +14°C° 0 mm 0 m/S 599 mmHg 93%
    03:00 +14°C° 0 mm 0 m/S 599 mmHg 91%
    04:00 +14°C° 0 mm 0 m/S 600 mmHg 90%
    05:00 +13°C° 0 mm 0 m/S 600 mmHg 89%
    06:00 +15°C° 0 mm 0 m/S 600 mmHg 83%
    07:00 +16°C° 0 mm 0 m/S 601 mmHg 76%
    08:00 +17°C° 0 mm 0 m/S 602 mmHg 70%
    09:00 +21°C° 0 mm 1 m/S 602 mmHg 60%
    10:00 +23°C° 0 mm 1 m/S 602 mmHg 50%
    11:00 +24°C° 0 mm 2 m/S 603 mmHg 40%
    12:00 +24°C° 0 mm 3 m/S 602 mmHg 42%
    13:00 +25°C° 0 mm 4 m/S 602 mmHg 44%
    14:00 +25°C° 0 mm 4 m/S 601 mmHg 46%
    15:00 +23°C° 0 mm 4 m/S 601 mmHg 56%
    16:00 +21°C° 0 mm 4 m/S 600 mmHg 65%
    17:00 +20°C° 0 mm 4 m/S 600 mmHg 75%
    18:00 +18°C° 0 mm 3 m/S 600 mmHg 80%
    19:00 +17°C° 0 mm 2 m/S 600 mmHg 86%
    20:00 +15°C° 0 mm 1 m/S 600 mmHg 92%
    21:00 +15°C° 0 mm 1 m/S 600 mmHg 92%
    22:00 +15°C° 0 mm 1 m/S 600 mmHg 92%
    23:00 +13°C° 0 mm 0 m/S 600 mmHg 92%

    30 August, Freitag

    Zeit Temperatur Niederschläge Wind Luftdruck Luftfeuchtigkeit
    00:00 +13°C° 0 mm 0 m/S 599 mmHg 93%
    01:00 +13°C° 0 mm 0 m/S 599 mmHg 93%
    02:00 +12°C° 0 mm 0 m/S 598 mmHg 94%
    03:00 +12°C° 0 mm 0 m/S 598 mmHg 94%
    04:00 +12°C° 0 mm 0 m/S 598 mmHg 94%
    05:00 +12°C° 0 mm 1 m/S 598 mmHg 94%
    06:00 +13°C° 0 mm 0 m/S 599 mmHg 86%
    07:00 +15°C° 0 mm 0 m/S 600 mmHg 77%
    08:00 +18°C° 0 mm 0 m/S 601 mmHg 68%
    09:00 +21°C° 0 mm 1 m/S 601 mmHg 58%
    10:00 +23°C° 0 mm 1 m/S 602 mmHg 47%
    11:00 +25°C° 0 mm 1 m/S 602 mmHg 37%
    12:00 +25°C° 0 mm 2 m/S 602 mmHg 37%
    13:00 +25°C° 0 mm 3 m/S 601 mmHg 38%
    14:00 +26°C° 0 mm 4 m/S 601 mmHg 38%
    15:00 +23°C° 0 mm 4 m/S 600 mmHg 48%
    16:00 +22°C° 0 mm 4 m/S 600 mmHg 57%
    17:00 +21°C° 0 mm 4 m/S 599 mmHg 67%
    18:00 +19°C° 0 mm 3 m/S 599 mmHg 76%
    19:00 +17°C° 0 mm 2 m/S 599 mmHg 85%
    20:00 +15°C° 0 mm 1 m/S 599 mmHg 94%
    21:00 +15°C° 0 mm 1 m/S 599 mmHg 94%
    22:00 +14°C° 0 mm 1 m/S 598 mmHg 95%
    23:00 +13°C° 0 mm 0 m/S 598 mmHg 95%
    Mehr zeigen